Location: Unspecified
(0.0000°N, 0.0000°E)
Time: 04:59:51
(UTC+00:00)

STARLINK-5201 - Visible Passes

Search period start: 17 September 2024 00:00
Search period end: 27 September 2024 00:00
Orbit: 538 x 541 km, 53.2° (Epoch: 16 September)

Date Brightness Start Highest point End Pass type
(mag) Time Alt. Az. Time Alt. Az. Time Alt. Az.
17 Sep 6.9 03:25:58 11° E 03:25:58 11° E 03:26:10 10° E visible
17 Sep 4.7 05:01:31 21° W 05:02:45 24° SW 05:06:06 10° S visible
18 Sep 5.3 04:54:38 17° SW 04:54:38 17° SW 04:56:44 10° SSW visible
